| time (UTC) | temp C | wind direction | speed KPH | gust KPH | rain 1hr cm | rain 24hr cm | rain mn cm | humidity % | barometer mb |
| 20260502180603 | 30 | 155 | 8.0 | 17.7 | 0.00 | 0.00 | 0.00 | 28 | 1014.9 |
| 20260502180123 | 30 | 200 | 6.4 | 17.7 | 0.00 | 0.00 | 0.00 | 27 | 1014.7 |
| 20260502164102 | 28 | 77 | 9.7 | 17.7 | 0.00 | 0.00 | 0.00 | 23 | 1015.3 |
| 20260502163559 | 28 | 115 | 9.7 | 17.7 | 0.00 | 0.00 | 0.00 | 23 | 1015.3 |
| 20260502163059 | 28 | 109 | 6.4 | 19.3 | 0.00 | 0.00 | 0.00 | 23 | 1015.3 |
| 20260502162559 | 28 | 150 | 8.0 | 19.3 | 0.00 | 0.00 | 0.00 | 23 | 1015.2 |
| 20260502162100 | 28 | 91 | 4.8 | 14.5 | 0.00 | 0.00 | 0.00 | 23 | 1015.3 |
| 20260502161601 | 28 | 119 | 6.4 | 14.5 | 0.00 | 0.00 | 0.00 | 23 | 1015.2 |
| 20260502161059 | 28 | 95 | 6.4 | 11.3 | 0.00 | 0.00 | 0.00 | 23 | 1015.2 |
| 20260502160559 | 28 | 98 | 6.4 | 12.9 | 0.00 | 0.00 | 0.00 | 23 | 1015.2 |
| 20260502152104 | 27 | 56 | 8.0 | 19.3 | 0.00 | 0.00 | 0.00 | 23 | 1014.7 |
| 20260502151612 | 26 | 42 | 8.0 | 19.3 | 0.00 | 0.00 | 0.00 | 23 | 1014.7 |
| 20260502151102 | 26 | 68 | 8.0 | 17.7 | 0.00 | 0.00 | 0.00 | 23 | 1014.6 |
| 20260502150559 | 26 | 49 | 6.4 | 17.7 | 0.00 | 0.00 | 0.00 | 24 | 1014.6 |
| 20260502150103 | 26 | 56 | 8.0 | 17.7 | 0.00 | 0.00 | 0.00 | 24 | 1014.6 |
| 20260502130602 | 18 | 0 | 0.0 | 0.0 | 0.00 | 0.00 | 0.00 | 32 | 1013.4 |
| 20260502130113 | 18 | 0 | 0.0 | 0.0 | 0.00 | 0.00 | 0.00 | 33 | 1013.2 |
| 20260502123601 | 18 | 0 | 0.0 | 0.0 | 0.00 | 0.00 | 0.00 | 32 | 1012.8 |
| 20260502123106 | 18 | 0 | 0.0 | 0.0 | 0.00 | 0.00 | 0.00 | 34 | 1012.9 |
| 20260502122602 | 18 | 0 | 0.0 | 0.0 | 0.00 | 0.00 | 0.00 | 34 | 1012.9 |
| 20260502122059 | 18 | 0 | 0.0 | 0.0 | 0.00 | 0.00 | 0.00 | 33 | 1012.7 |
| 20260502121609 | 18 | 0 | 0.0 | 0.0 | 0.00 | 0.00 | 0.00 | 34 | 1012.7 |
| 20260502121101 | 18 | 0 | 0.0 | 0.0 | 0.00 | 0.00 | 0.00 | 33 | 1012.5 |
| 20260502120558 | 18 | 0 | 0.0 | 0.0 | 0.00 | 0.00 | 0.00 | 32 | 1012.5 |
| 20260502120104 | 18 | 0 | 0.0 | 0.0 | 0.00 | 0.00 | 0.00 | 33 | 1012.5 |
| 20260502115603 | 18 | 0 | 0.0 | 0.0 | 0.00 | 0.00 | 0.00 | 33 | 1012.4 |
| 20260502115059 | 18 | 0 | 0.0 | 0.0 | 0.00 | 0.00 | 0.00 | 34 | 1012.5 |
| 20260502114602 | 18 | 0 | 0.0 | 0.0 | 0.00 | 0.00 | 0.00 | 34 | 1012.4 |
| 20260502114100 | 18 | 0 | 0.0 | 0.0 | 0.00 | 0.00 | 0.00 | 35 | 1012.4 |
| 20260502113603 | 18 | 0 | 0.0 | 0.0 | 0.00 | 0.00 | 0.00 | 34 | 1012.3 |
| 20260502113100 | 18 | 0 | 0.0 | 0.0 | 0.00 | 0.00 | 0.00 | 34 | 1012.4 |
| 20260502112601 | 18 | 0 | 0.0 | 1.6 | 0.00 | 0.00 | 0.00 | 33 | 1012.4 |
| 20260502112100 | 18 | 0 | 0.0 | 1.6 | 0.00 | 0.00 | 0.00 | 33 | 1012.3 |
| 20260502111602 | 19 | 0 | 0.0 | 1.6 | 0.00 | 0.00 | 0.00 | 33 | 1012.4 |
| 20260502111059 | 19 | 0 | 0.0 | 1.6 | 0.00 | 0.00 | 0.00 | 32 | 1012.4 |
| 20260502110601 | 19 | 0 | 0.0 | 0.0 | 0.00 | 0.00 | 0.00 | 32 | 1012.4 |
| 20260502105559 | 19 | 0 | 0.0 | 1.6 | 0.00 | 0.00 | 0.00 | 32 | 1012.4 |
| 20260502105058 | 20 | 0 | 0.0 | 1.6 | 0.00 | 0.00 | 0.00 | 32 | 1012.4 |
| 20260502104558 | 20 | 0 | 0.0 | 0.0 | 0.00 | 0.00 | 0.00 | 32 | 1012.4 |
| 20260502104059 | 20 | 0 | 0.0 | 1.6 | 0.00 | 0.00 | 0.00 | 30 | 1012.3 |
| 20260502103600 | 20 | 0 | 0.0 | 1.6 | 0.00 | 0.00 | 0.00 | 29 | 1012.3 |
| 20260502103106 | 21 | 0 | 0.0 | 1.6 | 0.00 | 0.00 | 0.00 | 29 | 1012.3 |
| 20260502102558 | 21 | 0 | 0.0 | 3.2 | 0.00 | 0.00 | 0.00 | 28 | 1012.2 |
| 20260502102058 | 21 | 0 | 0.0 | 3.2 | 0.00 | 0.00 | 0.00 | 28 | 1012.2 |
| 20260502101621 | 22 | 123 | 0.0 | 3.2 | 0.00 | 0.00 | 0.00 | 27 | 1012.2 |
| 20260502101059 | 22 | 127 | 0.0 | 3.2 | 0.00 | 0.00 | 0.00 | 27 | 1012.1 |
| 20260502100600 | 23 | 91 | 0.0 | 1.6 | 0.00 | 0.00 | 0.00 | 27 | 1012.1 |
| 20260502100116 | 23 | 0 | 0.0 | 4.8 | 0.00 | 0.00 | 0.00 | 26 | 1012.1 |
| 20260502091058 | 24 | 20 | 3.2 | 8.0 | 0.00 | 0.00 | 0.00 | 25 | 1011.9 |
| 20260502090559 | 24 | 76 | 3.2 | 12.9 | 0.00 | 0.00 | 0.00 | 25 | 1011.8 |
| 20260502080108 | 25 | 50 | 4.8 | 9.7 | 0.00 | 0.00 | 0.00 | 23 | 1011.8 |
| 20260502071105 | 24 | 49 | 4.8 | 11.3 | 0.00 | 0.00 | 0.00 | 23 | 1011.6 |
| 20260502070558 | 24 | 8 | 6.4 | 11.3 | 0.00 | 0.00 | 0.00 | 23 | 1011.5 |
| 20260502065558 | 24 | 307 | 3.2 | 11.3 | 0.00 | 0.00 | 0.00 | 24 | 1011.5 |
| 20260502065058 | 23 | 338 | 4.8 | 11.3 | 0.00 | 0.00 | 0.00 | 23 | 1011.3 |
| 20260502064602 | 23 | 1 | 6.4 | 11.3 | 0.00 | 0.00 | 0.00 | 23 | 1011.4 |
| 20260502064101 | 23 | 342 | 6.4 | 11.3 | 0.00 | 0.00 | 0.00 | 23 | 1011.3 |
| 20260502063559 | 23 | 342 | 4.8 | 9.7 | 0.00 | 0.00 | 0.00 | 23 | 1011.3 |
| 20260502063106 | 23 | 340 | 6.4 | 9.7 | 0.00 | 0.00 | 0.00 | 22 | 1011.2 |
| 20260502062602 | 23 | 314 | 4.8 | 8.0 | 0.00 | 0.00 | 0.00 | 22 | 1011.2 |
| 20260502062101 | 23 | 322 | 3.2 | 9.7 | 0.00 | 0.00 | 0.00 | 21 | 1011.2 |
| 20260502061601 | 23 | 315 | 4.8 | 9.7 | 0.00 | 0.00 | 0.00 | 21 | 1011.0 |
| 20260502061059 | 23 | 315 | 3.2 | 9.7 | 0.00 | 0.00 | 0.00 | 22 | 1010.9 |
| 20260502060558 | 23 | 333 | 1.6 | 4.8 | 0.00 | 0.00 | 0.00 | 23 | 1010.9 |
| 20260502060113 | 23 | 342 | 1.6 | 4.8 | 0.00 | 0.00 | 0.00 | 22 | 1010.9 |
| 20260502055558 | 23 | 292 | 1.6 | 4.8 | 0.00 | 0.00 | 0.00 | 22 | 1010.7 |
| 20260502055058 | 23 | 0 | 0.0 | 0.0 | 0.00 | 0.00 | 0.00 | 23 | 1010.7 |
| 20260502054604 | 24 | 0 | 0.0 | 3.2 | 0.00 | 0.00 | 0.00 | 22 | 1010.7 |
| 20260502054058 | 24 | 0 | 0.0 | 3.2 | 0.00 | 0.00 | 0.00 | 23 | 1010.6 |
| 20260502053601 | 25 | 0 | 0.0 | 3.2 | 0.00 | 0.00 | 0.00 | 22 | 1010.6 |
| 20260502053107 | 25 | 264 | 0.0 | 3.2 | 0.00 | 0.00 | 0.00 | 22 | 1010.5 |
| 20260502052559 | 25 | 249 | 0.0 | 3.2 | 0.00 | 0.00 | 0.00 | 22 | 1010.5 |
| 20260502052104 | 25 | 260 | 1.6 | 4.8 | 0.00 | 0.00 | 0.00 | 22 | 1010.6 |
| 20260502051603 | 26 | 243 | 0.0 | 4.8 | 0.00 | 0.00 | 0.00 | 21 | 1010.4 |
| 20260502051058 | 26 | 239 | 1.6 | 11.3 | 0.00 | 0.00 | 0.00 | 22 | 1010.5 |
| 20260502050601 | 26 | 285 | 4.8 | 11.3 | 0.00 | 0.00 | 0.00 | 22 | 1010.6 |
| 20260502045559 | 25 | 247 | 1.6 | 6.4 | 0.00 | 0.00 | 0.00 | 24 | 1010.4 |
| 20260502045059 | 25 | 203 | 3.2 | 6.4 | 0.00 | 0.00 | 0.00 | 25 | 1010.2 |
| 20260502044559 | 25 | 131 | 1.6 | 4.8 | 0.00 | 0.00 | 0.00 | 25 | 1010.2 |
| 20260502044058 | 26 | 147 | 3.2 | 4.8 | 0.00 | 0.00 | 0.00 | 25 | 1010.2 |
| 20260502043559 | 26 | 173 | 3.2 | 4.8 | 0.00 | 0.00 | 0.00 | 24 | 1010.2 |
| 20260502043127 | 26 | 146 | 1.6 | 6.4 | 0.00 | 0.00 | 0.00 | 25 | 1010.1 |
| 20260502042558 | 26 | 139 | 1.6 | 6.4 | 0.00 | 0.00 | 0.00 | 25 | 1010.2 |
| 20260502042101 | 26 | 150 | 3.2 | 8.0 | 0.00 | 0.00 | 0.00 | 24 | 1010.1 |
| 20260502041559 | 26 | 160 | 3.2 | 8.0 | 0.00 | 0.00 | 0.00 | 24 | 1010.0 |
| 20260502041058 | 27 | 131 | 3.2 | 8.0 | 0.00 | 0.00 | 0.00 | 24 | 1010.0 |
| 20260502040605 | 27 | 165 | 4.8 | 6.4 | 0.00 | 0.00 | 0.00 | 24 | 1009.9 |
| 20260502040100 | 27 | 149 | 3.2 | 8.0 | 0.00 | 0.00 | 0.00 | 24 | 1009.9 |
| 20260502035600 | 27 | 127 | 4.8 | 8.0 | 0.00 | 0.00 | 0.00 | 24 | 1009.8 |
| 20260502035058 | 27 | 112 | 3.2 | 8.0 | 0.00 | 0.00 | 0.00 | 24 | 1009.8 |
| 20260502034612 | 27 | 180 | 3.2 | 8.0 | 0.00 | 0.00 | 0.00 | 24 | 1009.7 |
| 20260502034059 | 27 | 117 | 3.2 | 8.0 | 0.00 | 0.00 | 0.00 | 24 | 1009.7 |
| 20260502033559 | 27 | 169 | 3.2 | 6.4 | 0.00 | 0.00 | 0.00 | 23 | 1009.6 |
| 20260502033105 | 27 | 130 | 3.2 | 9.7 | 0.00 | 0.00 | 0.00 | 23 | 1009.6 |
| 20260502032558 | 27 | 115 | 3.2 | 9.7 | 0.00 | 0.00 | 0.00 | 23 | 1009.6 |
| 20260502032101 | 28 | 143 | 3.2 | 6.4 | 0.00 | 0.00 | 0.00 | 22 | 1009.5 |
| 20260502031559 | 28 | 157 | 3.2 | 6.4 | 0.00 | 0.00 | 0.00 | 22 | 1009.4 |
| 20260502031058 | 28 | 162 | 3.2 | 8.0 | 0.00 | 0.00 | 0.00 | 22 | 1009.4 |
| 20260502030558 | 28 | 129 | 4.8 | 9.7 | 0.00 | 0.00 | 0.00 | 22 | 1009.3 |
| 20260502030101 | 28 | 190 | 4.8 | 9.7 | 0.00 | 0.00 | 0.00 | 22 | 1009.3 |
| 20260502025601 | 28 | 119 | 4.8 | 8.0 | 0.00 | 0.00 | 0.00 | 22 | 1009.2 |
| 20260502025058 | 28 | 148 | 3.2 | 9.7 | 0.00 | 0.00 | 0.00 | 22 | 1009.2 |
| 20260502024604 | 28 | 134 | 4.8 | 9.7 | 0.00 | 0.00 | 0.00 | 22 | 1009.1 |
| 20260502024102 | 28 | 184 | 3.2 | 11.3 | 0.00 | 0.00 | 0.00 | 22 | 1009.0 |
| 20260502023602 | 28 | 114 | 4.8 | 11.3 | 0.00 | 0.00 | 0.00 | 22 | 1009.0 |
| 20260502023111 | 28 | 177 | 4.8 | 9.7 | 0.00 | 0.00 | 0.00 | 21 | 1009.0 |
| 20260502022603 | 28 | 150 | 4.8 | 8.0 | 0.00 | 0.00 | 0.00 | 21 | 1008.8 |
| 20260502022059 | 28 | 112 | 4.8 | 8.0 | 0.00 | 0.00 | 0.00 | 21 | 1008.7 |
| 20260502021608 | 29 | 118 | 3.2 | 8.0 | 0.00 | 0.00 | 0.00 | 21 | 1008.7 |
| 20260502021059 | 29 | 124 | 3.2 | 9.7 | 0.00 | 0.00 | 0.00 | 21 | 1008.7 |
| 20260502020559 | 30 | 124 | 3.2 | 9.7 | 0.00 | 0.00 | 0.00 | 21 | 1008.7 |
| 20260502015600 | 30 | 133 | 4.8 | 11.3 | 0.00 | 0.00 | 0.00 | 20 | 1008.5 |
| 20260502015100 | 30 | 109 | 6.4 | 12.9 | 0.00 | 0.00 | 0.00 | 20 | 1008.6 |
| 20260502014604 | 30 | 146 | 8.0 | 12.9 | 0.00 | 0.00 | 0.00 | 20 | 1008.5 |
| 20260502014100 | 30 | 146 | 4.8 | 9.7 | 0.00 | 0.00 | 0.00 | 19 | 1008.5 |
| 20260502013559 | 31 | 195 | 4.8 | 8.0 | 0.00 | 0.00 | 0.00 | 19 | 1008.4 |
| 20260502013104 | 31 | 147 | 4.8 | 9.7 | 0.00 | 0.00 | 0.00 | 19 | 1008.4 |
| 20260502012559 | 31 | 107 | 6.4 | 11.3 | 0.00 | 0.00 | 0.00 | 19 | 1008.3 |
| 20260502012059 | 31 | 152 | 6.4 | 11.3 | 0.00 | 0.00 | 0.00 | 19 | 1008.3 |
| 20260502011610 | 31 | 150 | 4.8 | 11.3 | 0.00 | 0.00 | 0.00 | 19 | 1008.3 |
| 20260502011105 | 31 | 129 | 4.8 | 11.3 | 0.00 | 0.00 | 0.00 | 19 | 1008.3 |
| 20260502010602 | 31 | 182 | 3.2 | 12.9 | 0.00 | 0.00 | 0.00 | 19 | 1008.4 |
| 20260502010059 | 31 | 146 | 6.4 | 12.9 | 0.00 | 0.00 | 0.00 | 19 | 1008.4 |
| 20260502005600 | 31 | 115 | 4.8 | 12.9 | 0.00 | 0.00 | 0.00 | 19 | 1008.4 |
| 20260502005102 | 31 | 93 | 4.8 | 11.3 | 0.00 | 0.00 | 0.00 | 18 | 1008.5 |
| 20260502004607 | 32 | 88 | 3.2 | 8.0 | 0.00 | 0.00 | 0.00 | 19 | 1008.6 |
| 20260502004059 | 32 | 158 | 1.6 | 12.9 | 0.00 | 0.00 | 0.00 | 17 | 1008.5 |
| 20260502003559 | 32 | 145 | 0.0 | 12.9 | 0.00 | 0.00 | 0.00 | 17 | 1008.6 |
| 20260502003058 | 32 | 180 | 4.8 | 11.3 | 0.00 | 0.00 | 0.00 | 17 | 1008.6 |
| 20260502002603 | 32 | 188 | 3.2 | 12.9 | 0.00 | 0.00 | 0.00 | 17 | 1008.6 |
| 20260502002058 | 32 | 219 | 6.4 | 12.9 | 0.00 | 0.00 | 0.00 | 17 | 1008.7 |
| 20260502001556 | 32 | 184 | 6.4 | 12.9 | 0.00 | 0.00 | 0.00 | 17 | 1008.7 |
| 20260502001101 | 32 | 220 | 1.6 | 14.5 | 0.00 | 0.00 | 0.00 | 18 | 1008.7 |
| 20260502000559 | 32 | 148 | 6.4 | 14.5 | 0.00 | 0.00 | 0.00 | 19 | 1008.8 |
| 20260502000115 | 32 | 212 | 8.0 | 16.1 | 0.00 | 0.00 | 0.00 | 18 | 1008.9 |
| 20260501235559 | 32 | 176 | 6.4 | 20.9 | 0.00 | 0.00 | 0.00 | 19 | 1008.8 |
| 20260501235100 | 32 | 141 | 8.0 | 20.9 | 0.00 | 0.00 | 0.00 | 19 | 1008.9 |
| 20260501234558 | 32 | 122 | 4.8 | 9.7 | 0.00 | 0.00 | 0.00 | 19 | 1008.9 |
| 20260501234102 | 32 | 238 | 4.8 | 11.3 | 0.00 | 0.00 | 0.00 | 19 | 1009.0 |
| 20260501233600 | 32 | 188 | 4.8 | 11.3 | 0.00 | 0.00 | 0.00 | 20 | 1008.9 |
| 20260501233100 | 32 | 101 | 1.6 | 11.3 | 0.00 | 0.00 | 0.00 | 20 | 1008.9 |
| 20260501232559 | 31 | 344 | 1.6 | 14.5 | 0.00 | 0.00 | 0.00 | 20 | 1009.0 |
| 20260501232100 | 32 | 107 | 6.4 | 14.5 | 0.00 | 0.00 | 0.00 | 19 | 1009.1 |
| 20260501231611 | 32 | 184 | 6.4 | 14.5 | 0.00 | 0.00 | 0.00 | 20 | 1009.1 |
| 20260501231059 | 32 | 244 | 6.4 | 12.9 | 0.00 | 0.00 | 0.00 | 20 | 1009.2 |
| 20260501230559 | 32 | 255 | 4.8 | 11.3 | 0.00 | 0.00 | 0.00 | 20 | 1009.2 |
| 20260501230059 | 32 | 230 | 4.8 | 11.3 | 0.00 | 0.00 | 0.00 | 20 | 1009.2 |
| 20260501225559 | 32 | 240 | 3.2 | 11.3 | 0.00 | 0.00 | 0.00 | 20 | 1009.2 |
| 20260501225101 | 32 | 266 | 6.4 | 11.3 | 0.00 | 0.00 | 0.00 | 20 | 1009.3 |
| 20260501224603 | 32 | 282 | 0.0 | 9.7 | 0.00 | 0.00 | 0.00 | 21 | 1009.3 |
| 20260501224059 | 32 | 264 | 3.2 | 14.5 | 0.00 | 0.00 | 0.00 | 21 | 1009.4 |
| 20260501223600 | 32 | 315 | 6.4 | 16.1 | 0.00 | 0.00 | 0.00 | 21 | 1009.4 |
| 20260501223118 | 32 | 234 | 8.0 | 16.1 | 0.00 | 0.00 | 0.00 | 21 | 1009.4 |
| 20260501222559 | 32 | 271 | 3.2 | 17.7 | 0.00 | 0.00 | 0.00 | 22 | 1009.5 |
| 20260501222102 | 32 | 278 | 6.4 | 17.7 | 0.00 | 0.00 | 0.00 | 22 | 1009.6 |
| 20260501221618 | 32 | 252 | 3.2 | 11.3 | 0.00 | 0.00 | 0.00 | 23 | 1009.6 |
| 20260501221059 | 32 | 221 | 3.2 | 12.9 | 0.00 | 0.00 | 0.00 | 23 | 1009.7 |
| 20260501220559 | 31 | 256 | 3.2 | 12.9 | 0.00 | 0.00 | 0.00 | 24 | 1009.8 |
| 20260501220104 | 31 | 335 | 8.0 | 14.5 | 0.00 | 0.00 | 0.00 | 22 | 1009.8 |
| 20260501215602 | 31 | 330 | 6.4 | 14.5 | 0.00 | 0.00 | 0.00 | 23 | 1010.0 |
| 20260501215059 | 31 | 259 | 1.6 | 12.9 | 0.00 | 0.00 | 0.00 | 23 | 1010.1 |
| 20260501214603 | 31 | 291 | 4.8 | 12.9 | 0.00 | 0.00 | 0.00 | 24 | 1010.2 |
| 20260501214100 | 31 | 287 | 4.8 | 9.7 | 0.00 | 0.00 | 0.00 | 25 | 1010.2 |
| 20260501213559 | 30 | 264 | 3.2 | 8.0 | 0.00 | 0.00 | 0.00 | 24 | 1010.3 |
| 20260501213058 | 31 | 62 | 1.6 | 4.8 | 0.00 | 0.00 | 0.00 | 23 | 1010.4 |
| 20260501212625 | 31 | 47 | 1.6 | 9.7 | 0.00 | 0.00 | 0.00 | 23 | 1010.6 |
| 20260501212059 | 31 | 0 | 1.6 | 11.3 | 0.00 | 0.00 | 0.00 | 23 | 1010.8 |
| 20260501211600 | 30 | 206 | 4.8 | 11.3 | 0.00 | 0.00 | 0.00 | 24 | 1010.9 |
| 20260501211059 | 31 | 277 | 1.6 | 9.7 | 0.00 | 0.00 | 0.00 | 24 | 1010.9 |
| 20260501210559 | 31 | 247 | 4.8 | 9.7 | 0.00 | 0.00 | 0.00 | 23 | 1011.0 |
| 20260501210058 | 31 | 212 | 6.4 | 9.7 | 0.00 | 0.00 | 0.00 | 23 | 1011.0 |
| 20260501205600 | 30 | 232 | 3.2 | 9.7 | 0.00 | 0.00 | 0.00 | 24 | 1011.0 |
| 20260501205100 | 30 | 106 | 1.6 | 6.4 | 0.00 | 0.00 | 0.00 | 25 | 1011.1 |
| 20260501204559 | 30 | 0 | 1.6 | 6.4 | 0.00 | 0.00 | 0.00 | 24 | 1011.2 |
| 20260501204103 | 30 | 340 | 1.6 | 6.4 | 0.00 | 0.00 | 0.00 | 24 | 1011.1 |
| 20260501203603 | 30 | 159 | 1.6 | 12.9 | 0.00 | 0.00 | 0.00 | 24 | 1011.2 |
| 20260501203059 | 30 | 208 | 4.8 | 12.9 | 0.00 | 0.00 | 0.00 | 26 | 1011.3 |
| 20260501202559 | 30 | 114 | 3.2 | 9.7 | 0.00 | 0.00 | 0.00 | 25 | 1011.4 |
| 20260501202059 | 30 | 140 | 4.8 | 12.9 | 0.00 | 0.00 | 0.00 | 25 | 1011.5 |
| 20260501201600 | 30 | 229 | 4.8 | 12.9 | 0.00 | 0.00 | 0.00 | 25 | 1011.5 |
| 20260501201059 | 30 | 193 | 4.8 | 12.9 | 0.00 | 0.00 | 0.00 | 26 | 1011.5 |
| 20260501200559 | 30 | 82 | 1.6 | 8.0 | 0.00 | 0.00 | 0.00 | 24 | 1011.7 |
| 20260501200059 | 29 | 165 | 1.6 | 8.0 | 0.00 | 0.00 | 0.00 | 26 | 1011.7 |
| 20260501195559 | 29 | 136 | 1.6 | 12.9 | 0.00 | 0.00 | 0.00 | 25 | 1011.7 |
| 20260501195100 | 30 | 120 | 4.8 | 14.5 | 0.00 | 0.00 | 0.00 | 26 | 1011.9 |
| 20260501194559 | 30 | 219 | 8.0 | 14.5 | 0.00 | 0.00 | 0.00 | 26 | 1011.8 |
| 20260501194102 | 30 | 113 | 3.2 | 14.5 | 0.00 | 0.00 | 0.00 | 26 | 1011.9 |
| 20260501193600 | 30 | 126 | 4.8 | 12.9 | 0.00 | 0.00 | 0.00 | 27 | 1012.0 |
| 20260501193058 | 29 | 195 | 3.2 | 12.9 | 0.00 | 0.00 | 0.00 | 27 | 1012.0 |
| 20260501192559 | 28 | 191 | 3.2 | 9.7 | 0.00 | 0.00 | 0.00 | 28 | 1012.1 |
| 20260501192059 | 28 | 63 | 0.0 | 19.3 | 0.00 | 0.00 | 0.00 | 29 | 1012.2 |
| 20260501191559 | 28 | 80 | 4.8 | 19.3 | 0.00 | 0.00 | 0.00 | 29 | 1012.3 |
| 20260501191101 | 28 | 86 | 6.4 | 17.7 | 0.00 | 0.00 | 0.00 | 29 | 1012.3 |
| 20260501190600 | 28 | 130 | 1.6 | 9.7 | 0.00 | 0.00 | 0.00 | 30 | 1012.4 |
| 20260501190115 | 28 | 126 | 4.8 | 12.9 | 0.00 | 0.00 | 0.00 | 30 | 1012.5 |
| 20260501185559 | 27 | 111 | 1.6 | 12.9 | 0.00 | 0.00 | 0.00 | 30 | 1012.5 |
| 20260501185059 | 27 | 79 | 4.8 | 12.9 | 0.00 | 0.00 | 0.00 | 30 | 1012.5 |
| 20260501184559 | 27 | 0 | 1.6 | 12.9 | 0.00 | 0.00 | 0.00 | 29 | 1012.7 |
| 20260501184059 | 28 | 188 | 4.8 | 12.9 | 0.00 | 0.00 | 0.00 | 29 | 1012.7 |
| 20260501183603 | 28 | 109 | 4.8 | 11.3 | 0.00 | 0.00 | 0.00 | 29 | 1012.8 |
| 20260501183102 | 28 | 105 | 6.4 | 11.3 | 0.00 | 0.00 | 0.00 | 29 | 1012.8 |
| 20260501182559 | 28 | 82 | 3.2 | 11.3 | 0.00 | 0.00 | 0.00 | 31 | 1012.9 |
| 20260501182104 | 27 | 214 | 4.8 | 11.3 | 0.00 | 0.00 | 0.00 | 31 | 1012.9 |
| 20260501181557 | 27 | 107 | 1.6 | 8.0 | 0.00 | 0.00 | 0.00 | 33 | 1013.0 |
| 20260501181103 | 27 | 49 | 3.2 | 9.7 | 0.00 | 0.00 | 0.00 | 32 | 1013.0 |